Regional Weather Roundup
Issued by NWS

Home | Current Version | Previous Version | Graphics & Text | Print | Product List | Glossary Off
Versions: 1 2 3 4 5 6 7 8 9 10 11 12 13 14 15 16 17 18 19 20 21 22 23 24 25 26 27 28 29 30 31 32 33 34 35 36 37 38 39 40 41 42 43 44 45 46 47 48 49 50

405
ASUS43 KMPX 290001
RWRMN
WEATHER ROUNDUP FOR MINNESOTA
NATIONAL WEATHER SERVICE TWIN CITIES/CHANHASSEN MN
700 PM CDT SUN MAY 28 2017


NOTE: "FAIR" INDICATES FEW OR NO CLOUDS BELOW 12,000 FEET WITH NO
SIGNIFICANT WEATHER AND/OR OBSTRUCTIONS TO VISIBILITY. N/A MEANS
CURRENT SKY AND/OR WEATHER CONDITIONS ARE NOT AVAILABLE.

MNZ060>063-068>070-290100-
   Twin Cities Metro

CITY           SKY/WX    TMP DP  RH WIND       PRES   REMARKS
TWIN CITIES    PTSUNNY   67  42  40 NW20G29   29.73S
6HR MIN TEMP:  66; 6HR MAX TEMP:  73;

ST PAUL        MOSUNNY   68  45  43 W18G30    29.73S
CRYSTAL        MOSUNNY   67  45  45 W15       29.71F
BLAINE         MOSUNNY   68  46  45 W9G16     29.72S
LAKEVILLE      SUNNY     68  45  42 NW12G20   29.74S
EDEN PRAIRIE   PTSUNNY   67  44  43 NW12G24   29.73S
6HR MIN TEMP:  67; 6HR MAX TEMP:  74;

SOUTH ST PAUL  SUNNY     67  42  39 NW13G22   29.73R
LAKE ELMO      FAIR      64  46  52 W12G18    29.73S
$$
MNZ001>005-007-008-013>017-022>024-027-028-290100-
   Northwest Minnesota

CITY           SKY/WX    TMP DP  RH WIND       PRES   REMARKS
BEMIDJI        LGT RAIN  52  48  84 NW10G23   29.68S
HALLOCK        CLOUDY    55  46  71 NW20G30   29.74S
ROSEAU         CLOUDY    54  48  82 W10G16    29.69S
WARROAD        PTSUNNY   57  50  77 NW8       29.68S
CROOKSTON      CLOUDY    52  52 100 N25G31    29.75R
FOSSTON        CLOUDY    55  46  71 NW16      29.71S
DETROIT LAKES  MOSUNNY   59  46  63 NW14      29.73F
MOORHEAD       PTSUNNY   61  48  63 NW29G36   29.76R
PARK RAPIDS    PTSUNNY   59  46  62 NW12      29.70F
MAHNOMEN       MOCLDY    57  48  72 W16       29.71F
$$
MNZ006-009>011-018-025>026-290100-
   North Central Minnesota

CITY           SKY/WX    TMP DP  RH WIND       PRES   REMARKS
BAUDETTE       CLOUDY    58  49  72 N16G24    29.65R
FLAG ISLAND    LGT RAIN  55  48  76 NW15      29.65S
INTL FALLS     LGT RAIN  56  49  77 N8        29.62S
6HR MIN TEMP:  54; 6HR MAX TEMP:  67; 6HR PCP:  0.40;

WASKISH        PTSUNNY   57  52  82 NW3       29.66S
BIG FORK       LGT RAIN  55  48  76 N5        29.65F
LONGVILLE      SUNNY     59  45  58 W7        29.68S
GRAND RAPIDS   CLOUDY    56  50  80 W6        29.68F
CRANE LAKE     CLOUDY    52  50  93 SW3       29.64R
ORR            MOSUNNY   61  46  59 W8        29.60F
COOK           MOSUNNY   59  48  67 W12G22    29.64S
WALKER         FAIR      58  46  64 W10       29.68F
$$
MNZ012-019>021-037-290100-
   Northeast Minnesota

CITY           SKY/WX    TMP DP  RH WIND       PRES   REMARKS
DULUTH         CLOUDY    60  48  64 NW12      29.65S
6HR MIN TEMP:  60; 6HR MAX TEMP:  66; 6HR PCP: TRACE;

ELY            LGT RAIN  52  48  87 CALM      29.63F
HIBBING        CLOUDY    55  51  86 W7        29.65S
EVELETH        PTSUNNY   58  45  62 W13       29.66S
DULUTH HARBOR  CLOUDY    59  54  82 W12       29.65F THUNDER
TWO HARBORS    CLOUDY    63  54  72 W7        29.63R
SILVER BAY     PTSUNNY   57  54  88 CALM      29.62S
GRAND MARAIS     N/A     45  44  97 W7        29.62S
G MARAIS ARPRT CLOUDY    52  45  76 CALM      29.62F
$$
MNZ029>031-032-039>041-046>048-054>057-064-290100-
   West Central Minnesota

CITY           SKY/WX    TMP DP  RH WIND       PRES   REMARKS
FERGUS FALLS   CLOUDY    61  46  59 W9        29.73F
WHEATON        CLOUDY    61  46  59 NW9       29.78F
MORRIS         MOSUNNY   59  48  67 NW7       29.77F
ALEXANDRIA     PTSUNNY   59  47  64 N10       29.77S
ELBOW LAKE     FAIR      60  45  57 W16G23    29.76F
WADENA         PTSUNNY   57  46  67 NW8       29.72F
GLENWOOD       CLOUDY    63  43  48 W23G29    29.77F
APPLETON       CLOUDY    63  41  45 NW12G20   29.79F
BENSON         CLOUDY    63  45  51 N14G20    29.80F
ORTONVILLE     MOSUNNY   63  43  48 NW9G17    29.79F
MADISON        CLOUDY    64  46  52 N16       29.82F
WILLMAR        LGT RAIN  59  52  77 NW18G31   29.80R
$$
MNZ033>034-036-042>043-049>051-058-059-290100-
   Central Minnesota

CITY           SKY/WX    TMP DP  RH WIND       PRES   REMARKS
ST CLOUD       SUNNY     65  44  46 NW13G22   29.71F
6HR MIN TEMP:  62; 6HR MAX TEMP:  71; 6HR PCP: TRACE;

SAUK CENTRE    FAIR      57  49  75 NW15      29.77R
PAYNESVILLE    LGT RAIN  58  46  63 NW16G29   29.78R
AITKIN         CLOUDY    55  48  76 CALM      29.67F
PINE RIVER     CLOUDY    55  48  76 W6        29.74R
BRAINERD       CLOUDY    58  47  66 NW10      29.72F
STAPLES        CLOUDY    55  45  67 W8        29.73F
LONG PRAIRIE   PTSUNNY   54  48  82 NW12G17   29.76R
LITTLE FALLS   MOSUNNY   59  43  55 NW6       29.74R
LITCHFIELD     SUNNY     68  45  42 NW9       29.75S
BUFFALO        MOSUNNY   67  46  45 W8        29.74F
MAPLE LAKE     SUNNY     69  49  50 W8        29.73F
HUTCHINSON     MOSUNNY   71  43  36 W14G25    29.75S
$$
MNZ037-044-045-052-053-290100-
   East Central Minnesota

CITY           SKY/WX    TMP DP  RH WIND       PRES   REMARKS
PRINCETON      MOSUNNY   68  45  42 W12G21    29.71F
MORA           PTSUNNY   55  50  82 W3        29.73F
CAMBRIDGE      SUNNY     66  52  59 W7        29.70F
RUSH CITY      MOSUNNY   58  50  75 CALM      29.72S
MOOSE LAKE     PTSUNNY   61  45  55 W8G18     29.67S
HINCKLEY       FAIR      59  52  77 W7        29.71S
CLOQUET        LGT RAIN  55  48  76 W3        29.67S
MCGREGOR       CLOUDY    54  46  76 NW10G17   29.68S
$$
MNZ071>073-080-081-089-090-097-098-290100-
   Southwest Minnesota

CITY           SKY/WX    TMP DP  RH WIND       PRES   REMARKS
MONTEVIDEO     CLOUDY    63  45  51 N14G23    29.81F
CANBY          CLOUDY    61  46  56 NW14G20   29.85R
MARSHALL       LGT RAIN  67  42  40 NW18G33   29.81R
REDWOOD FALLS  CLOUDY    68  39  34 NW24G36   29.79R
OLIVIA         MOSUNNY   61  45  55 NW24G36   29.80R
PIPESTONE      MOSUNNY   70  30  23 N10G17    29.83S
WINDOM         SUNNY     72  36  26 NW17G25   29.81R
WORTHINGTON    PTSUNNY   71  39  31 NW20G26   29.83S
JACKSON        SUNNY     70  34  26 NW18G26   29.82S
TRACY          CLOUDY    69  44  40 NW16      29.83R
SLAYTON        CLOUDY    70  38  30 NW21G32   29.83R
$$
MNZ065>067-074>077-082>085-091>093-290100-
   South Central Minnesota

CITY           SKY/WX    TMP DP  RH WIND       PRES   REMARKS
MANKATO        PTSUNNY   72  41  32 W21G30    29.76R
NEW ULM        SUNNY     72  37  28 NW20G29   29.77R
ST JAMES       SUNNY     73  36  25 W25G31    29.79S
FAIRMONT       MOSUNNY   72  38  29 NW21G28   29.79S
GLENCOE        MOSUNNY   71  48  43 NW17      29.74S
FARIBAULT      SUNNY     70  45  40 W8        29.75S
OWATONNA       PTSUNNY   70  41  35 NW14      29.75S
WASECA         MOSUNNY   72  37  28 W24       29.77S
ALBERT LEA     MOSUNNY   73  39  29 NW10G18   29.76S
$$
MNZ078>079-086>088-094>096-290100-
   Southeast Minnesota

CITY           SKY/WX    TMP DP  RH WIND       PRES   REMARKS
ROCHESTER      MOSUNNY   71  41  33 W22       29.75S
6HR MIN TEMP:  68; 6HR MAX TEMP:  72;

RED WING       SUNNY     70  37  30 NW10G22   29.72S
STANTON        MOSUNNY   69  45  41 NW12G18   29.73S
DODGE CENTER   MOSUNNY   70  37  30 W13G24    29.75S
WINONA         SUNNY     72  43  35 W12G20    29.72S
AUSTIN         MOSUNNY   70  39  32 W16G25    29.76S
PRESTON        PTSUNNY   69  41  35 W16G24    29.76S
$$
ABBREVIATIONS USED IN REMARKS
   TC - TEMPERATURES IN CELSIUS
  WCI - WIND CHILL INDEX
   HX - HEAT INDEX
  VSB - VISIBILITY
$$




USA.gov is the U.S. government's official web portal to all federal, state and local government web resources and services.